OBJECT A, 51824

Orbit data source: Space-Track

You're viewing an Uncataloged Satellite

Recently launched and/or uncataloged satellites may have evolving metadata. Metadata may include but not limited to: Owner, Maufacturer, Bus, Motor, and Mission.

OBJECT A, 51824 is a satellite owned by Weina (CN) in SSO that was launched on Sun, 27 Feb 2022 UTC via a CHANG ZHENG 8 launch vehicle from the Wenchang Satellite Launch Center (WSC). Unknown objects in Earth's orbit typically refer to objects detected orbiting the Earth but have not yet been identified or cataloged. These objects could be anything from previously untracked satellites, spent rocket stages, debris from satellite collisions, or even natural meteoroids temporarily captured by Earth's gravity.

Loading next visibility...
OBJECT A details
Identifier
51824, 2022-019A
Orbit
SSO
Last TLE update8 hours ago
Origin
Flag of CNWeina (CN / PRC)
ManufacturerWeina
MissionNon-operational Commercial Radar Imaging
Bus & MotorMN200, Unknown motor
Mass350 kg wet, 350 kg dry
Launch date (UTC)
2022-02-27 (3 years ago)
Launch vehicle
CHANG ZHENG 8
Launch site
Wenchang Satellite Launch Center (WSC)
Object typeUnknown
Shape & HBRBox + 3 Pan, 6 m
Radar Cross Section3.533 m², Large (>1 m²)

Expand to show TLE details & history

TLE from 8 hours ago
0 OBJECT A
1 51824U 22019A   25014.92023436  .00030128  00000-0  79803-3 0  9999
2 51824  97.4078  93.0704 0011521 203.9641 156.1070 15.38241996159671
Epoch: 2025-01-14T22:05Z
Definitive object data (Epoch: 2025-01-14T22:05:08.248Z)
Latitude0.00004°
Longitude7.16602°
Altitude461.62 km
Speed7.632 km/s
True Right ascension06h 12m 16s
True Declination0° 00' 00"
Sunlit
Object was in full shadow at TLE epoch
Visualization TLE readout
Latitude38.05644°
Longitude1.69181°
Altitude464.225 km
Speed7.634 km/s
Apparent Right ascension01h 47m 32s
Apparent Declination5° 38' 18"
Sunlit
Object is in full shadow
Visualization observer readout
Local Sidereal Time06:42:47
Azimuth263.867° W
Elevation16.013°
Doppler factor1
Orbital elements
Apogee altitude456.114 km
Perigee altitude440.385 km
Semi-major axis6,826.386 km
Eccentricity0.0011521
Inclination97.4078°
RAAN93.0704°
Arg. of periapsis203.9641°
True anomaly156.1604°
Mean anomaly156.107°
Eccentric anomaly156.13371°
Mean motion3.84819 °/min
BSTAR0.00079803
Orbital period93.55 mins
Loading maneuver chart data...
Loading historical data...
Loading historical data...
Loading historical data...
Loading historical data...
Loading historical data...
Loading historical data...
Loading historical data...

OBJECT A Visibility forecast

Observer location: undefined°, undefined

Span
Click to sort rows by Start time (UTC) header in descending order
Start Az.
Max El. time (UTC)
Max El. Az.
Max El.
End time (UTC)
End Az.
4 mins2025-01-15 17:24:28.494Z56.928° ENE2025-01-15 17:25:28.494Z84.212° E24.792°2025-01-15 17:28:28.494Z155.821° SSE
4 mins2025-01-16 05:27:28.494Z204.578° SW2025-01-16 05:28:28.494Z237.839° WSW34.259°2025-01-16 05:31:28.494Z331.089° NNW
|